TimeEDT,TemperatureF,Dew PointF,Humidity,Sea Level PressureIn,VisibilityMPH,Wind Direction,Wind SpeedMPH,Gust SpeedMPH,PrecipitationIn,Events,Conditions,WindDirDegrees,DateUTC
12:45 AM,33.8,28.4,81,30.13,10.0,West,5.8,-,N/A,,Partly Cloudy,270,2013-03-30 04:45:00
1:45 AM,33.8,28.4,81,30.13,10.0,Calm,Calm,-,N/A,,Scattered Clouds,0,2013-03-30 05:45:00
2:45 AM,33.8,28.4,81,30.13,10.0,Calm,Calm,-,N/A,,Scattered Clouds,0,2013-03-30 06:45:00
4:45 AM,32.0,28.4,87,30.12,10.0,Calm,Calm,-,N/A,,Scattered Clouds,0,2013-03-30 08:45:00
5:45 AM,32.0,28.4,87,30.12,10.0,WSW,6.9,-,N/A,,Scattered Clouds,250,2013-03-30 09:45:00
6:45 AM,30.2,26.6,86,30.13,20.0,Calm,Calm,-,N/A,,Clear,0,2013-03-30 10:45:00
7:45 AM,33.8,30.2,87,30.15,20.0,West,6.9,-,N/A,,Clear,270,2013-03-30 11:45:00
8:45 AM,39.2,32.0,75,30.16,20.0,West,6.9,-,N/A,,Clear,270,2013-03-30 12:45:00
9:45 AM,44.6,30.2,57,30.16,20.0,West,11.5,-,N/A,,Clear,270,2013-03-30 13:45:00
10:45 AM,48.2,28.4,46,30.15,20.0,West,11.5,-,N/A,,Clear,270,2013-03-30 14:45:00
11:45 AM,50.0,26.6,40,30.13,20.0,WNW,6.9,-,N/A,,Scattered Clouds,290,2013-03-30 15:45:00
1:45 PM,53.6,26.6,35,30.09,20.0,West,13.8,20.7,N/A,,Scattered Clouds,260,2013-03-30 17:45:00
2:45 PM,55.4,21.2,26,30.07,25.0,WNW,16.1,23.0,N/A,,Scattered Clouds,300,2013-03-30 18:45:00
3:45 PM,53.6,21.2,28,30.07,20.0,NW,11.5,19.6,N/A,,Scattered Clouds,320,2013-03-30 19:45:00
4:45 PM,55.4,19.4,25,30.06,20.0,NW,11.5,20.7,N/A,,Scattered Clouds,320,2013-03-30 20:45:00
5:45 PM,55.4,19.4,25,30.06,20.0,NNW,13.8,20.7,N/A,,Partly Cloudy,330,2013-03-30 21:45:00
6:45 PM,53.6,19.4,26,30.07,20.0,NW,11.5,-,N/A,,Partly Cloudy,320,2013-03-30 22:45:00
7:45 PM,50.0,19.4,30,30.09,10.0,NW,5.8,-,N/A,,Clear,320,2013-03-30 23:45:00
8:45 PM,42.8,21.2,42,30.10,10.0,Calm,Calm,-,N/A,,Clear,0,2013-03-31 00:45:00
9:45 PM,39.2,24.8,56,30.11,10.0,Calm,Calm,-,N/A,,Clear,0,2013-03-31 01:45:00
10:45 PM,42.8,21.2,42,30.12,10.0,East,6.9,-,N/A,,Clear,90,2013-03-31 02:45:00
11:45 PM,42.8,21.2,42,30.13,10.0,ESE,6.9,-,N/A,,Clear,110,2013-03-31 03:45:00